Regional Weather Roundup
Issued by NWS Upton, NY

Current Version | Previous Version | Graphics & Text | Print | Product List | Glossary Off
Versions: 1 2 3 4 5 6 7 8 9 10 11 12 13 14 15 16 17 18 19 20 21 22 23 24 25 26 27

000
ASUS41 KOKX 261008
RWROKX

REGIONAL WEATHER ROUNDUP
NATIONAL WEATHER SERVICE NEW YORK NY
500 AM EST SUN FEB 26 2017

NOTE: "FAIR" INDICATES FEW OR NO CLOUDS BELOW 12,000 FEET WITH NO
SIGNIFICANT WEATHER AND/OR OBSTRUCTIONS TO VISIBILITY.

NYZ071-072-176-178-NJZ106-104-261100-
NEW YORK CITY METRO AREA

CITY           SKY/WX    TMP DP  RH WIND       PRES   REMARKS
Central Park   MOCLDY    38  20  48 NW15G23   29.83R WCI  29
Wall St Helipt NOT AVBL
LaGuardia APRT PTCLDY    41  22  46 NW23G32   29.81R
Kennedy INTL   MOCLDY    40  23  50 NW25G32   29.82R WCI  29
Breezy Point     N/A     37 N/A N/A NW17G24     N/A  WCI  28
Newark/Liberty MOCLDY    39  23  52 NW15      29.82R WCI  31
Teterboro      PTCLDY    39  20  46 NW16G31   29.82R WCI  30
$$

NYZ177-179-078>081-261100-
LONG ISLAND NEW YORK

CITY           SKY/WX    TMP DP  RH WIND       PRES   REMARKS
Jones Beach      N/A     39 N/A N/A NW25G32     N/A  WCI  28
Matinecock PT    N/A     41 N/A N/A NW23        N/A
Farmingdale    CLOUDY    40  23  50 NW15G25   29.79R WCI  32
MacArthur/ISP  CLEAR     38  24  57 NW16G28   29.77R WCI  29
Shirley        CLEAR     38  23  55 NW10G22   29.78R WCI  31
Westhampton    CLEAR     38  24  57 W13G24    29.78R WCI  30
Southampton    NOT AVBL
Bridgehampton  NOT AVBL
East Hampton     N/A     38  25  59 W10G22    29.75R WCI  32
Montauk          N/A     40  30  67 NW14G21   29.74R WCI  32
$$

NYZ052-065-067-261100-
HUDSON VALLEY

CITY           SKY/WX    TMP DP  RH WIND       PRES   REMARKS
White Plains   PTCLDY    36  18  48 NW25G39   29.77R WCI  24
Newburgh       PTCLDY    34  21  60 NW17G29   29.80R WCI  23
Montgomery     CLOUDY    36  19  50 NW7G20    29.78R WCI  30
Poughkeepsie   CLOUDY    35  19  52 W13G20    29.78R WCI  26
Albany         CLOUDY    33  21  61 W15G24    29.78R WCI  23
$$

NJZ001-105-106-008-010-013-015-019>022-104-261100-
NEW JERSEY

CITY           SKY/WX    TMP DP  RH WIND       PRES   REMARKS
Newark/Liberty MOCLDY    39  23  52 NW15      29.82R WCI  31
Teterboro      PTCLDY    39  20  46 NW16G31   29.82R WCI  30
Caldwell       PTCLDY    37  19  48 NW15G22   29.83R WCI  28
Somerville     CLOUDY    37  23  56 W9G17     29.83R WCI  30
Linden         NOT AVBL
Sussex         MOCLDY    35  18  49 W8        29.82R WCI  29
Andover          N/A     34  17  50 VRB6G18   29.83R WCI  29
Trenton        CLEAR     37  20  50 W9        29.86R WCI  30
Millville      CLEAR     37  22  54 W14       29.91R WCI  28
Atlantic City  CLEAR     37  22  54 W14       29.88R WCI  28
Wrightstown    CLEAR     37  21  54 NW15G25   29.84R WCI  27
Toms River     CLEAR     37  24  59 W12       29.86R WCI  29
Belmar         PTCLDY    38  25  59 W15       29.84R WCI  29
$$

PAZ047>061-062-071-261100-
EASTERN PENNSYLVANIA

CITY           SKY/WX    TMP DP  RH WIND       PRES   REMARKS
Philadelphia   MOCLDY    39  21  48 W12G21    29.91R WCI  32
Allentown      CLOUDY    36  19  50 W14G22    29.86R WCI  27
Scranton       CLOUDY    32  19  58 W12       29.84R WCI  23
$$

CTZ002-004>006-009-010-012-RIZ004-006-007-MAZ004-011-015-261100-
SOUTHERN NEW ENGLAND
 IN CT

CITY           SKY/WX    TMP DP  RH WIND       PRES   REMARKS
Bradley INTL   MOCLDY    36  23  59 NW12      29.73R WCI  28
Hartford       PTCLDY    37  22  54 NW8       29.74R WCI  31
Danbury        PTCLDY    35  17  47 W13G22    29.77R WCI  26
Wtrbury/Oxford CLEAR     34  18  51 NW8G21    29.74R WCI  27
Bridgeport     PTCLDY    39  20  46 NW14G23   29.77R WCI  31
Meriden        CLEAR     39  20  46 NW9G17    29.75R WCI  33
New Haven      CLEAR     38  21  50 NW15G25   29.76R WCI  29
Chester          N/A     36  27  69 NW7       29.73R WCI  30
Groton         CLEAR     38  26  62 NW13G21   29.73R WCI  30
Wilimantic     CLEAR     38  23  55 NW13G18   29.72R WCI  30

 IN RI

CITY           SKY/WX    TMP DP  RH WIND       PRES   REMARKS
Providence     CLEAR     38  23  55 W10G23    29.69R WCI  31
Block Island   CLEAR     38  28  67 NW16G25   29.72R WCI  29
Westerly       CLEAR     39  23  52 VRB6G20   29.72R WCI  35
 IN MA

CITY           SKY/WX    TMP DP  RH WIND       PRES   REMARKS
Boston         PTCLDY    40  24  53 W20G36    29.63R WCI  30
Worcester      MOCLDY    33  20  58 W21G28    29.62R WCI  21
Westfield      MOCLDY    34  20  56 NW14G25   29.72  WCI  25
Provincetown   MOCLDY    41  33  73 W21G26    29.62R
Nantucket      CLOUDY    42  32  67 W21G28    29.64R
$$

ANZ330-335-338-340-345-350-353-355-261100-
COASTAL MARINE OBSERVATIONS


STATION/POSITION TIME  SKY/WX   TEMP    WIND        PRES    VSBY  WAVE
                                AIR SEA DIR/SP/G                  HT/PER
                 (UTC)          (F)     (DEG/KT/KT) (MB)    (MI)  (FT/S)
NY HARB ENTRANCE 0850            43 44  300/ 21/ 25 1007.3          4/11
20 S FIRE ISLAND 0950            42 43  310/ 19/ 23 1007.9          6/11
GREAT SOUTH BAY  NOT AVBL
23 SSW MONTAUK P 0850            43 44              1005.6          6/11
15 E BARNEGAT LI 0930               44                N/A           6/11
HUDSON CANYON    0850               47              1006.8          8/11
KINGS POINT      0936            39 41              1009.0
EXECUTION ROCKS  NOT AVBL
CENTRAL LI SOUND 0930            41     280/ 21/ 31   N/A           2/ 3
EASTERN LI SOUND NOT AVBL
ROBBINS REEF     0942            39     310/ 23/ 30 1009.5
$$


>>>>>>>>>>>>>>>>>>>>>>>>>>>> KEY <<<<<<<<<<<<<<<<<<<<<<<<<<<
>                                                          <
>     SKY/WX - Sky Condition/Present Weather               <
>     TMP    - Temperature in Fahrenheit                   <
>     DP     - Dew Point in Fahrenheit                     <
>     RH     - Relative Humidity in Percent                <
>     WIND   - Direction (from) and Speed in MPH           <
>     PRES   - Mean Sea Level Pressure (inches of Hg)      <
>     WCI    - Wind Chill Index                            <
>     VSB    - VISIBILITY IN MILES                         <
>     HX     - HEAT INDEX                                  <
>     TC     - TEMPERATURE IN CELSIUS                      <
>     VRB    - VARIABLE WIND DIRECTION                     <
>                                                          <
>>>>>>>>>>>>>>>>>>>>>>>>>>>> KEY <<<<<<<<<<<<<<<<<<<<<<<<<<<




USA.gov is the U.S. government's official web portal to all federal, state and local government web resources and services.